Louisville Bowman, KY

5:59 AM EDT on August 26, 2019 (GMT -0400)
Bowman

Weather History for KLOU - May, 2019

Change the Weather History Date:

Friday, May 10, 2019

  Actual Average Record
Temperature  
Mean Temperature 61 °F 64 °F  
Max Temperature 68 °F 75 °F 88 °F (1993)
Min Temperature 54 °F 54 °F 31 °F (1966)
Degree Days  
Heating Degree Days 4 3  
Month to date heating degree days 11 37  
Since 1 July heating degree days 4065 4228  
Cooling Degree Days 0 2  
Month to date cooling degree days 30 19  
Year to date cooling degree days 47 53  
Growing Degree Days 10 (Base 50)    
Moisture  
Dew Point 53 °F    
Average Humidity 75    
Maximum Humidity 87    
Minimum Humidity 62    
Precipitation  
Precipitation 0.01 in 0.16 in 1.74 in (1950)
Month to date precipitation 1.80 1.80  
Year to date precipitation 25.21 16.60  
Sea Level Pressure  
Sea Level Pressure 30.05 in    
Wind  
Wind Speed 6 mph (NW)    
Max Wind Speed 13 mph    
Max Gust Speed 19 mph    
Visibility 10 miles    
Events      
T = Trace of Precipitation, MM = Missing Value Source: NWS Daily Summary

Daily Weather History Graph

Daily Weather History Graph

Search for Another Location

Airport or City:

Astronomy

May. 10, 2019 Rise Set
Actual Time 6:36 AM EDT 8:42 PM EDT
Civil Twilight 6:07 AM EDT 9:11 PM EDT
Nautical Twilight 5:31 AM EDT 9:47 PM EDT
Astronomical Twilight 4:53 AM EDT 10:25 PM EDT
Moon 11:36 AM EDT (5/10) 1:33 AM EDT (5/10)
Length of Visible Light 15h 03m
Length of Day
14h 05m
Waxing Crescent, 35% of the Moon is Illuminated
May 10
Waxing Crescent
May 11
First Quarter
May 18
Full
May 26
Last Quarter
Jun 3
New

Hourly Weather History & Observations

Time (EDT) Temp. Dew Point Humidity Pressure Visibility Wind Dir Wind Speed Gust Speed Precip Events Conditions
12:53 AM 64.9 °F 61.0 °F 87% 29.93 in 10.0 mi South 5.8 mph - N/A   Clear
1:30 AM 66.0 °F 62.1 °F 87% 29.94 in 10.0 mi South 4.6 mph - N/A   Mostly Cloudy
1:40 AM 66.0 °F 62.1 °F 87% 29.94 in 10.0 mi South 4.6 mph - N/A   Overcast
1:53 AM 66.9 °F 62.1 °F 84% 29.93 in 10.0 mi South 5.8 mph - N/A   Overcast
2:01 AM 66.9 °F 62.1 °F 84% 29.94 in 10.0 mi South 5.8 mph - N/A   Overcast
2:19 AM 66.9 °F 62.1 °F 84% 29.94 in 10.0 mi SSW 5.8 mph - N/A   Overcast
2:53 AM 66.9 °F 62.1 °F 84% 29.94 in 10.0 mi West 5.8 mph - N/A   Overcast
3:50 AM 66.2 °F 59.0 °F 78% 29.95 in 10.0 mi NW 3.5 mph - 0.00 in   Mostly Cloudy
3:51 AM 64.9 °F 59.0 °F 81% 29.94 in 10.0 mi NNW 3.5 mph - 0.00 in   Mostly Cloudy
4:09 AM 64.9 °F 57.9 °F 78% 29.96 in 10.0 mi WNW 6.9 mph - N/A   Mostly Cloudy
4:53 AM 64.0 °F 57.9 °F 80% 29.97 in 10.0 mi WNW 11.5 mph - N/A   Overcast
5:19 AM 63.0 °F 57.0 °F 81% 29.98 in 10.0 mi NW 6.9 mph - N/A   Overcast
5:44 AM 63.0 °F 57.0 °F 81% 29.99 in 10.0 mi WNW 8.1 mph - N/A   Overcast
5:53 AM 62.1 °F 57.0 °F 84% 29.99 in 10.0 mi NW 6.9 mph - N/A   Overcast
6:53 AM 59.0 °F 52.0 °F 78% 30.01 in 10.0 mi WNW 9.2 mph - N/A   Overcast
7:04 AM 59.0 °F 52.0 °F 78% 30.02 in 10.0 mi WNW 8.1 mph - N/A   Overcast
7:21 AM 59.0 °F 51.1 °F 75% 30.03 in 10.0 mi WNW 6.9 mph - N/A   Overcast
7:53 AM 57.9 °F 51.1 °F 78% 30.04 in 10.0 mi WNW 6.9 mph - N/A   Overcast
8:27 AM 57.9 °F 52.0 °F 81% 30.06 in 10.0 mi NW 6.9 mph - N/A   Overcast
8:53 AM 57.9 °F 52.0 °F 81% 30.06 in 6.0 mi WNW 5.8 mph - 0.01 in   Haze
9:53 AM 57.9 °F 51.1 °F 78% 30.08 in 10.0 mi NW 6.9 mph - N/A   Overcast
10:53 AM 57.9 °F 50.0 °F 75% 30.09 in 10.0 mi WNW 4.6 mph - N/A   Overcast
11:04 AM 57.9 °F 48.9 °F 72% 30.11 in 10.0 mi NW 8.1 mph - N/A   Overcast
11:53 AM 57.9 °F 50.0 °F 75% 30.10 in 10.0 mi NW 5.8 mph - N/A   Overcast
12:23 PM 60.1 °F 50.0 °F 69% 30.10 in 10.0 mi Variable 5.8 mph - N/A   Overcast
12:53 PM 61.0 °F 50.0 °F 67% 30.10 in 10.0 mi West 8.1 mph - N/A   Overcast
1:53 PM 61.0 °F 50.0 °F 67% 30.10 in 10.0 mi Variable 5.8 mph - N/A   Overcast
2:53 PM 60.1 °F 48.9 °F 67% 30.12 in 10.0 mi NW 5.8 mph - N/A   Overcast
3:53 PM 61.0 °F 48.9 °F 64% 30.11 in 10.0 mi Variable 3.5 mph - N/A   Overcast
4:53 PM 61.0 °F 48.9 °F 64% 30.10 in 10.0 mi West 8.1 mph - N/A   Overcast
5:53 PM 61.0 °F 48.9 °F 64% 30.12 in 10.0 mi Variable 3.5 mph - N/A   Overcast
6:53 PM 61.0 °F 48.0 °F 62% 30.11 in 10.0 mi North 5.8 mph - N/A   Overcast
7:53 PM 59.0 °F 46.9 °F 64% 30.10 in 10.0 mi NW 6.9 mph - N/A   Overcast
8:28 PM 59.0 °F 46.9 °F 64% 30.10 in 10.0 mi NNW 3.5 mph - N/A   Overcast
8:39 PM 59.0 °F 46.9 °F 64% 30.11 in 10.0 mi Calm Calm - N/A   Overcast
8:53 PM 59.0 °F 48.0 °F 67% 30.11 in 10.0 mi Calm Calm - N/A   Overcast
10:53 PM 57.0 °F 46.0 °F 67% 30.13 in 10.0 mi North 6.9 mph - N/A   Overcast
11:13 PM 55.9 °F 46.0 °F 69% 30.13 in 10.0 mi North 4.6 mph - N/A   Overcast
11:23 PM 55.9 °F 46.0 °F 69% 30.13 in 10.0 mi North 6.9 mph - N/A   Overcast
11:48 PM 55.4 °F 46.4 °F 72% 30.12 in 10.0 mi North 5.8 mph - N/A   Overcast
11:53 PM 55.9 °F 45.0 °F 67% 30.12 in 10.0 mi North 5.8 mph - N/A   Overcast